| time (UTC) | temp F | wind direction | speed MPH | gust MPH | rain 1hr in | rain 24hr in | rain mn in | humidity % | barometer mb |
| 20260510141504 | 71 | 183 | 6.0 | 16.0 | 0.00 | 0.20 | 0.20 | 78 | 1014.6 |
| 20260510141004 | 70 | 156 | 9.0 | 15.0 | 0.00 | 0.20 | 0.20 | 78 | 1014.4 |
| 20260510140504 | 70 | 162 | 7.0 | 12.0 | 0.00 | 0.20 | 0.20 | 80 | 1014.7 |
| 20260510135005 | 68 | 189 | 6.0 | 13.0 | 0.00 | 0.20 | 0.20 | 86 | 1015.6 |
| 20260510134505 | 67 | 155 | 6.0 | 12.0 | 0.00 | 0.20 | 0.20 | 87 | 1015.6 |
| 20260510134005 | 67 | 157 | 3.0 | 7.0 | 0.00 | 0.20 | 0.20 | 87 | 1015.7 |
| 20260510133504 | 66 | 126 | 2.0 | 9.0 | 0.00 | 0.20 | 0.20 | 88 | 1015.7 |
| 20260510133004 | 66 | 154 | 4.0 | 9.0 | 0.00 | 0.20 | 0.20 | 88 | 1015.7 |
| 20260510132504 | 66 | 133 | 3.0 | 9.0 | 0.00 | 0.20 | 0.20 | 88 | 1015.5 |
| 20260510132005 | 66 | 141 | 3.0 | 8.0 | 0.00 | 0.20 | 0.20 | 89 | 1015.3 |
| 20260510131504 | 66 | 151 | 5.0 | 10.0 | 0.00 | 0.20 | 0.20 | 89 | 1015.2 |
| 20260510131004 | 66 | 154 | 5.0 | 10.0 | 0.00 | 0.20 | 0.20 | 90 | 1015.3 |
| 20260510130504 | 66 | 117 | 4.0 | 10.0 | 0.00 | 0.20 | 0.20 | 90 | 1015.3 |
| 20260510130005 | 66 | 150 | 4.0 | 10.0 | 0.00 | 0.20 | 0.20 | 90 | 1015.3 |
| 20260510125505 | 66 | 109 | 6.0 | 9.0 | 0.00 | 0.20 | 0.20 | 90 | 1015.0 |
| 20260510124504 | 65 | 124 | 3.0 | 8.0 | 0.00 | 0.20 | 0.20 | 91 | 1014.9 |
| 20260510124004 | 65 | 134 | 6.0 | 10.0 | 0.00 | 0.20 | 0.20 | 91 | 1014.8 |
| 20260510123504 | 65 | 139 | 5.0 | 10.0 | 0.00 | 0.20 | 0.20 | 91 | 1014.9 |
| 20260510121504 | 64 | 150 | 3.0 | 9.0 | 0.00 | 0.20 | 0.20 | 92 | 1014.6 |
| 20260510121004 | 64 | 122 | 5.0 | 10.0 | 0.00 | 0.20 | 0.20 | 92 | 1014.5 |
| 20260510120504 | 64 | 135 | 3.0 | 9.0 | 0.00 | 0.20 | 0.20 | 92 | 1014.4 |
| 20260510115504 | 64 | 120 | 5.0 | 9.0 | 0.00 | 0.20 | 0.20 | 92 | 1014.4 |
| 20260510115004 | 64 | 125 | 3.0 | 9.0 | 0.00 | 0.20 | 0.20 | 92 | 1014.3 |
| 20260510114504 | 64 | 126 | 4.0 | 8.0 | 0.00 | 0.20 | 0.20 | 92 | 1014.2 |
| 20260510114004 | 64 | 140 | 3.0 | 8.0 | 0.00 | 0.20 | 0.20 | 92 | 1014.3 |
| 20260510113504 | 64 | 132 | 2.0 | 7.0 | 0.00 | 0.20 | 0.20 | 92 | 1014.2 |
| 20260510113004 | 64 | 109 | 5.0 | 9.0 | 0.00 | 0.20 | 0.20 | 91 | 1014.2 |
| 20260510112505 | 64 | 122 | 3.0 | 7.0 | 0.00 | 0.20 | 0.20 | 91 | 1014.2 |
| 20260510112004 | 64 | 131 | 3.0 | 8.0 | 0.00 | 0.20 | 0.20 | 91 | 1014.2 |
| 20260510111504 | 64 | 133 | 3.0 | 8.0 | 0.00 | 0.20 | 0.20 | 91 | 1014.2 |
| 20260510111004 | 64 | 103 | 2.0 | 8.0 | 0.00 | 0.20 | 0.20 | 91 | 1014.2 |
| 20260510110503 | 64 | 151 | 4.0 | 8.0 | 0.00 | 0.20 | 0.20 | 91 | 1013.9 |
| 20260510110004 | 64 | 118 | 4.0 | 9.0 | 0.00 | 0.20 | 0.20 | 91 | 1014.0 |
| 20260510105504 | 64 | 104 | 3.0 | 8.0 | 0.00 | 0.20 | 0.20 | 91 | 1014.0 |
| 20260510105004 | 64 | 104 | 4.0 | 9.0 | 0.00 | 0.20 | 0.20 | 91 | 1014.0 |
| 20260510104504 | 64 | 106 | 4.0 | 10.0 | 0.00 | 0.20 | 0.20 | 91 | 1014.0 |
| 20260510103504 | 64 | 130 | 5.0 | 13.0 | 0.01 | 0.20 | 0.20 | 90 | 1013.8 |
| 20260510103004 | 64 | 119 | 6.0 | 10.0 | 0.03 | 0.20 | 0.20 | 90 | 1013.8 |
| 20260510102504 | 64 | 114 | 5.0 | 9.0 | 0.03 | 0.20 | 0.20 | 90 | 1013.8 |
| 20260510102004 | 64 | 114 | 3.0 | 9.0 | 0.07 | 0.20 | 0.20 | 90 | 1013.8 |
| 20260510101504 | 64 | 119 | 6.0 | 10.0 | 0.17 | 0.20 | 0.20 | 90 | 1013.8 |
| 20260510101004 | 64 | 123 | 6.0 | 13.0 | 0.20 | 0.20 | 0.20 | 89 | 1013.9 |
| 20260510100503 | 64 | 102 | 6.0 | 13.0 | 0.20 | 0.20 | 0.20 | 89 | 1014.1 |
| 20260510095504 | 65 | 90 | 7.0 | 13.0 | 0.20 | 0.20 | 0.20 | 89 | 1014.0 |
| 20260510095004 | 65 | 90 | 6.0 | 16.0 | 0.20 | 0.20 | 0.20 | 88 | 1014.0 |
| 20260510094504 | 65 | 97 | 10.0 | 17.0 | 0.20 | 0.20 | 0.20 | 88 | 1014.1 |
| 20260510094004 | 65 | 93 | 6.0 | 15.0 | 0.20 | 0.20 | 0.20 | 88 | 1013.5 |
| 20260510093504 | 65 | 93 | 7.0 | 16.0 | 0.18 | 0.18 | 0.18 | 86 | 1013.4 |
| 20260510093004 | 65 | 100 | 14.0 | 25.0 | 0.16 | 0.16 | 0.16 | 85 | 1013.6 |
| 20260510092004 | 67 | 77 | 8.0 | 18.0 | 0.13 | 0.13 | 0.13 | 82 | 1014.3 |
| 20260510091504 | 69 | 23 | 11.0 | 17.0 | 0.02 | 0.02 | 0.02 | 79 | 1014.6 |
| 20260510091004 | 70 | 29 | 13.0 | 23.0 | 0.00 | 0.00 | 0.00 | 75 | 1014.4 |
| 20260510090003 | 71 | 26 | 13.0 | 24.0 | 0.00 | 0.00 | 0.00 | 76 | 1013.9 |
| 20260510085504 | 72 | 36 | 7.0 | 17.0 | 0.00 | 0.00 | 0.00 | 83 | 1013.4 |
| 20260510085003 | 73 | 45 | 5.0 | 13.0 | 0.00 | 0.00 | 0.00 | 86 | 1013.2 |
| 20260510084004 | 74 | 84 | 0.0 | 2.0 | 0.00 | 0.00 | 0.00 | 88 | 1012.9 |
| 20260510083503 | 74 | 84 | 1.0 | 3.0 | 0.00 | 0.00 | 0.00 | 88 | 1012.8 |
| 20260510083004 | 74 | 84 | 2.0 | 8.0 | 0.00 | 0.00 | 0.00 | 88 | 1012.5 |
| 20260510081504 | 74 | 99 | 4.0 | 9.0 | 0.00 | 0.00 | 0.00 | 87 | 1012.9 |
| 20260510081004 | 74 | 41 | 3.0 | 9.0 | 0.00 | 0.00 | 0.00 | 87 | 1012.8 |
| 20260510080504 | 74 | 50 | 3.0 | 8.0 | 0.00 | 0.00 | 0.00 | 87 | 1012.6 |
| 20260510075503 | 74 | 117 | 1.0 | 7.0 | 0.00 | 0.00 | 0.00 | 86 | 1012.0 |
| 20260510075004 | 74 | 81 | 3.0 | 9.0 | 0.00 | 0.00 | 0.00 | 86 | 1011.7 |
| 20260510074504 | 74 | 84 | 2.0 | 7.0 | 0.00 | 0.00 | 0.00 | 86 | 1011.7 |
| 20260510073506 | 74 | 117 | 2.0 | 5.0 | 0.00 | 0.00 | 0.00 | 85 | 1011.6 |
| 20260510073006 | 74 | 90 | 1.0 | 5.0 | 0.00 | 0.00 | 0.00 | 85 | 1011.3 |
| 20260510071506 | 74 | 152 | 2.0 | 13.0 | 0.00 | 0.00 | 0.00 | 84 | 1010.5 |
| 20260510071006 | 74 | 120 | 6.0 | 13.0 | 0.00 | 0.00 | 0.00 | 84 | 1010.6 |
| 20260510070506 | 74 | 125 | 5.0 | 12.0 | 0.00 | 0.00 | 0.00 | 84 | 1010.7 |
| 20260510070006 | 75 | 145 | 6.0 | 13.0 | 0.00 | 0.00 | 0.00 | 83 | 1010.8 |
| 20260510065006 | 75 | 146 | 6.0 | 10.0 | 0.00 | 0.00 | 0.00 | 82 | 1011.7 |
| 20260510064506 | 75 | 131 | 8.0 | 13.0 | 0.00 | 0.00 | 0.00 | 82 | 1012.2 |
| 20260510064006 | 75 | 52 | 3.0 | 9.0 | 0.00 | 0.00 | 0.00 | 82 | 1012.6 |
| 20260510063506 | 75 | 30 | 4.0 | 13.0 | 0.00 | 0.00 | 0.00 | 81 | 1012.8 |
| 20260510063006 | 75 | 20 | 7.0 | 14.0 | 0.00 | 0.00 | 0.00 | 81 | 1012.9 |
| 20260510062506 | 76 | 4 | 7.0 | 17.0 | 0.00 | 0.00 | 0.00 | 81 | 1013.0 |
| 20260510061506 | 75 | 5 | 3.0 | 7.0 | 0.00 | 0.00 | 0.00 | 81 | 1012.6 |
| 20260510061006 | 75 | 34 | 2.0 | 10.0 | 0.00 | 0.00 | 0.00 | 81 | 1012.7 |
| 20260510060506 | 76 | 29 | 5.0 | 13.0 | 0.00 | 0.00 | 0.00 | 81 | 1012.4 |
| 20260510060006 | 75 | 17 | 3.0 | 9.0 | 0.00 | 0.00 | 0.00 | 81 | 1011.8 |
| 20260510054506 | 76 | 136 | 3.0 | 7.0 | 0.00 | 0.00 | 0.00 | 79 | 1010.2 |
| 20260510054006 | 76 | 104 | 3.0 | 7.0 | 0.00 | 0.00 | 0.00 | 79 | 1010.1 |
| 20260510053506 | 76 | 142 | 3.0 | 9.0 | 0.00 | 0.00 | 0.00 | 78 | 1010.1 |
| 20260510053006 | 76 | 140 | 2.0 | 8.0 | 0.00 | 0.00 | 0.00 | 77 | 1010.1 |
| 20260510052506 | 76 | 144 | 4.0 | 10.0 | 0.00 | 0.00 | 0.00 | 77 | 1009.9 |
| 20260510052005 | 76 | 139 | 7.0 | 14.0 | 0.00 | 0.00 | 0.00 | 77 | 1009.9 |
| 20260510051506 | 76 | 171 | 6.0 | 14.0 | 0.00 | 0.00 | 0.00 | 76 | 1009.6 |
| 20260510051006 | 76 | 149 | 6.0 | 9.0 | 0.00 | 0.00 | 0.00 | 75 | 1009.8 |
| 20260510045006 | 77 | 122 | 5.0 | 8.0 | 0.00 | 0.00 | 0.00 | 69 | 1009.7 |
| 20260510044505 | 77 | 146 | 4.0 | 12.0 | 0.00 | 0.00 | 0.00 | 68 | 1009.5 |
| 20260510044005 | 77 | 158 | 6.0 | 13.0 | 0.00 | 0.00 | 0.00 | 68 | 1009.3 |
| 20260510043506 | 77 | 168 | 4.0 | 8.0 | 0.00 | 0.00 | 0.00 | 68 | 1009.3 |
| 20260510043005 | 77 | 137 | 4.0 | 9.0 | 0.00 | 0.00 | 0.00 | 68 | 1009.4 |
| 20260510042506 | 77 | 158 | 5.0 | 8.0 | 0.00 | 0.00 | 0.00 | 68 | 1009.4 |
| 20260510042006 | 77 | 143 | 5.0 | 10.0 | 0.00 | 0.00 | 0.00 | 69 | 1009.5 |
| 20260510040506 | 77 | 159 | 4.0 | 9.0 | 0.00 | 0.00 | 0.00 | 69 | 1009.7 |
| 20260510040006 | 76 | 141 | 3.0 | 9.0 | 0.00 | 0.00 | 0.00 | 69 | 1009.7 |
| 20260510035505 | 76 | 138 | 3.0 | 7.0 | 0.00 | 0.00 | 0.00 | 69 | 1009.8 |
| 20260510035005 | 77 | 130 | 2.0 | 7.0 | 0.00 | 0.00 | 0.00 | 69 | 1009.7 |
| 20260510034505 | 76 | 136 | 2.0 | 8.0 | 0.00 | 0.00 | 0.00 | 69 | 1009.8 |
| 20260510034005 | 76 | 139 | 5.0 | 9.0 | 0.00 | 0.00 | 0.00 | 69 | 1009.8 |
| 20260510033505 | 76 | 135 | 2.0 | 6.0 | 0.00 | 0.00 | 0.00 | 69 | 1009.8 |
| 20260510033005 | 77 | 137 | 2.0 | 6.0 | 0.00 | 0.00 | 0.00 | 69 | 1009.9 |
| 20260510032505 | 76 | 115 | 1.0 | 5.0 | 0.00 | 0.00 | 0.00 | 69 | 1009.8 |
| 20260510032006 | 76 | 126 | 3.0 | 7.0 | 0.00 | 0.00 | 0.00 | 69 | 1009.8 |
| 20260510031505 | 77 | 128 | 3.0 | 7.0 | 0.00 | 0.00 | 0.00 | 69 | 1009.9 |
| 20260510031006 | 77 | 150 | 2.0 | 6.0 | 0.00 | 0.00 | 0.00 | 69 | 1009.8 |
| 20260510030006 | 77 | 130 | 2.0 | 6.0 | 0.00 | 0.00 | 0.00 | 68 | 1009.7 |
| 20260510025505 | 77 | 139 | 4.0 | 8.0 | 0.00 | 0.00 | 0.00 | 68 | 1009.8 |
| 20260510025005 | 78 | 119 | 3.0 | 8.0 | 0.00 | 0.00 | 0.00 | 68 | 1009.8 |
| 20260510024005 | 78 | 106 | 3.0 | 7.0 | 0.00 | 0.00 | 0.00 | 67 | 1009.7 |
| 20260510023505 | 78 | 119 | 4.0 | 8.0 | 0.00 | 0.00 | 0.00 | 66 | 1009.7 |
| 20260510023006 | 78 | 111 | 5.0 | 8.0 | 0.00 | 0.00 | 0.00 | 66 | 1009.7 |
| 20260510022505 | 78 | 101 | 4.0 | 9.0 | 0.00 | 0.00 | 0.00 | 66 | 1009.6 |
| 20260510021505 | 79 | 133 | 3.0 | 8.0 | 0.00 | 0.00 | 0.00 | 65 | 1009.5 |
| 20260510021005 | 79 | 106 | 6.0 | 10.0 | 0.00 | 0.00 | 0.00 | 64 | 1009.4 |
| 20260510020005 | 79 | 114 | 2.0 | 10.0 | 0.00 | 0.00 | 0.00 | 63 | 1009.4 |
| 20260510015505 | 79 | 123 | 4.0 | 8.0 | 0.00 | 0.00 | 0.00 | 63 | 1009.3 |
| 20260510015005 | 79 | 102 | 2.0 | 7.0 | 0.00 | 0.00 | 0.00 | 62 | 1009.3 |
| 20260510014506 | 80 | 113 | 2.0 | 7.0 | 0.00 | 0.00 | 0.00 | 62 | 1009.3 |
| 20260510014005 | 80 | 117 | 5.0 | 8.0 | 0.00 | 0.00 | 0.00 | 61 | 1009.2 |
| 20260510013505 | 80 | 105 | 4.0 | 9.0 | 0.00 | 0.00 | 0.00 | 61 | 1009.1 |
| 20260510013005 | 80 | 109 | 4.0 | 8.0 | 0.00 | 0.00 | 0.00 | 60 | 1009.0 |
| 20260510012505 | 80 | 117 | 2.0 | 8.0 | 0.00 | 0.00 | 0.00 | 60 | 1009.0 |
| 20260510012005 | 81 | 118 | 3.0 | 8.0 | 0.00 | 0.00 | 0.00 | 59 | 1008.8 |
| 20260510011505 | 81 | 113 | 5.0 | 8.0 | 0.00 | 0.00 | 0.00 | 58 | 1008.8 |
| 20260510010505 | 81 | 102 | 4.0 | 9.0 | 0.00 | 0.00 | 0.00 | 56 | 1008.7 |
| 20260510010005 | 82 | 106 | 5.0 | 13.0 | 0.00 | 0.00 | 0.00 | 56 | 1008.6 |
| 20260510005505 | 82 | 116 | 5.0 | 9.0 | 0.00 | 0.00 | 0.00 | 56 | 1008.7 |
| 20260510005005 | 82 | 118 | 6.0 | 9.0 | 0.00 | 0.00 | 0.00 | 55 | 1008.6 |
| 20260510004505 | 82 | 110 | 5.0 | 12.0 | 0.00 | 0.00 | 0.00 | 54 | 1008.6 |
| 20260510004006 | 82 | 109 | 6.0 | 10.0 | 0.00 | 0.00 | 0.00 | 54 | 1008.6 |
| 20260510003505 | 83 | 106 | 4.0 | 10.0 | 0.00 | 0.00 | 0.00 | 53 | 1008.5 |
| 20260510003005 | 83 | 109 | 5.0 | 9.0 | 0.00 | 0.00 | 0.00 | 54 | 1008.6 |
| 20260510002505 | 83 | 105 | 5.0 | 8.0 | 0.00 | 0.00 | 0.00 | 55 | 1008.6 |
| 20260510001005 | 83 | 101 | 5.0 | 8.0 | 0.00 | 0.00 | 0.00 | 54 | 1008.7 |
| 20260510000505 | 83 | 119 | 4.0 | 13.0 | 0.00 | 0.00 | 0.00 | 54 | 1008.7 |
| 20260510000005 | 83 | 123 | 6.0 | 10.0 | 0.00 | 0.00 | 0.00 | 54 | 1008.7 |
| 20260509235505 | 84 | 117 | 6.0 | 9.0 | 0.00 | 0.00 | 0.00 | 54 | 1008.7 |
| 20260509235004 | 84 | 75 | 5.0 | 9.0 | 0.00 | 0.00 | 0.00 | 54 | 1008.7 |
| 20260509234504 | 84 | 123 | 3.0 | 9.0 | 0.00 | 0.00 | 0.00 | 54 | 1008.7 |
| 20260509234004 | 84 | 79 | 6.0 | 12.0 | 0.00 | 0.00 | 0.00 | 54 | 1008.7 |
| 20260509233505 | 84 | 105 | 5.0 | 10.0 | 0.00 | 0.00 | 0.00 | 54 | 1008.7 |
| 20260509233005 | 84 | 86 | 5.0 | 9.0 | 0.00 | 0.00 | 0.00 | 54 | 1008.8 |
| 20260509232505 | 84 | 96 | 4.0 | 9.0 | 0.00 | 0.00 | 0.00 | 54 | 1008.7 |
| 20260509232004 | 84 | 112 | 7.0 | 13.0 | 0.00 | 0.00 | 0.00 | 55 | 1008.7 |
| 20260509231505 | 84 | 99 | 5.0 | 13.0 | 0.00 | 0.00 | 0.00 | 56 | 1008.8 |
| 20260509231004 | 85 | 78 | 5.0 | 12.0 | 0.00 | 0.00 | 0.00 | 57 | 1008.7 |
| 20260509230005 | 85 | 81 | 4.0 | 9.0 | 0.00 | 0.00 | 0.00 | 57 | 1008.7 |
| 20260509225505 | 84 | 120 | 6.0 | 9.0 | 0.00 | 0.00 | 0.00 | 58 | 1008.7 |
| 20260509225005 | 85 | 110 | 5.0 | 8.0 | 0.00 | 0.00 | 0.00 | 57 | 1008.6 |
| 20260509224005 | 85 | 74 | 2.0 | 6.0 | 0.00 | 0.00 | 0.00 | 58 | 1008.6 |
| 20260509223505 | 85 | 111 | 3.0 | 9.0 | 0.00 | 0.00 | 0.00 | 58 | 1008.5 |
| 20260509223005 | 85 | 101 | 3.0 | 10.0 | 0.00 | 0.00 | 0.00 | 58 | 1008.6 |
| 20260509222504 | 85 | 112 | 5.0 | 10.0 | 0.00 | 0.00 | 0.00 | 57 | 1008.6 |
| 20260509222005 | 85 | 119 | 3.0 | 9.0 | 0.00 | 0.00 | 0.00 | 59 | 1008.6 |
| 20260509221505 | 85 | 99 | 3.0 | 12.0 | 0.00 | 0.00 | 0.00 | 58 | 1008.6 |
| 20260509221005 | 86 | 114 | 5.0 | 10.0 | 0.00 | 0.00 | 0.00 | 57 | 1008.7 |
| 20260509220505 | 86 | 93 | 6.0 | 10.0 | 0.00 | 0.00 | 0.00 | 57 | 1008.6 |
| 20260509220005 | 86 | 81 | 5.0 | 9.0 | 0.00 | 0.00 | 0.00 | 58 | 1008.6 |
| 20260509215504 | 86 | 108 | 3.0 | 9.0 | 0.00 | 0.00 | 0.00 | 57 | 1008.7 |
| 20260509215004 | 86 | 109 | 6.0 | 13.0 | 0.00 | 0.00 | 0.00 | 58 | 1008.6 |
| 20260509214505 | 87 | 106 | 7.0 | 13.0 | 0.00 | 0.00 | 0.00 | 56 | 1008.6 |
| 20260509214005 | 87 | 95 | 5.0 | 12.0 | 0.00 | 0.00 | 0.00 | 56 | 1008.7 |
| 20260509213505 | 86 | 88 | 3.0 | 10.0 | 0.00 | 0.00 | 0.00 | 57 | 1008.8 |
| 20260509213005 | 86 | 97 | 5.0 | 10.0 | 0.00 | 0.00 | 0.00 | 57 | 1008.9 |
| 20260509212504 | 87 | 62 | 5.0 | 12.0 | 0.00 | 0.00 | 0.00 | 57 | 1008.9 |
| 20260509212004 | 87 | 63 | 6.0 | 12.0 | 0.00 | 0.00 | 0.00 | 57 | 1009.0 |
| 20260509211504 | 87 | 68 | 7.0 | 13.0 | 0.00 | 0.00 | 0.00 | 57 | 1009.0 |
| 20260509211005 | 87 | 52 | 4.0 | 13.0 | 0.00 | 0.00 | 0.00 | 57 | 1009.0 |
| 20260509210005 | 87 | 76 | 7.0 | 12.0 | 0.00 | 0.00 | 0.00 | 58 | 1009.2 |
| 20260509205504 | 87 | 79 | 7.0 | 12.0 | 0.00 | 0.00 | 0.00 | 56 | 1009.3 |
| 20260509205005 | 87 | 98 | 7.0 | 10.0 | 0.00 | 0.00 | 0.00 | 55 | 1009.3 |
| 20260509204004 | 87 | 128 | 5.0 | 13.0 | 0.00 | 0.00 | 0.00 | 57 | 1009.4 |
| 20260509203505 | 88 | 147 | 5.0 | 8.0 | 0.00 | 0.00 | 0.00 | 53 | 1009.4 |
| 20260509203005 | 87 | 1 | 3.0 | 12.0 | 0.00 | 0.00 | 0.00 | 52 | 1009.5 |
| 20260509202504 | 88 | 69 | 4.0 | 13.0 | 0.00 | 0.00 | 0.00 | 52 | 1009.5 |
| 20260509201504 | 88 | 357 | 3.0 | 8.0 | 0.00 | 0.00 | 0.00 | 48 | 1009.7 |
| 20260509201004 | 87 | 340 | 5.0 | 12.0 | 0.00 | 0.00 | 0.00 | 48 | 1009.6 |
| 20260509200505 | 86 | 82 | 4.0 | 10.0 | 0.00 | 0.00 | 0.00 | 49 | 1009.8 |
| 20260509195505 | 88 | 89 | 7.0 | 10.0 | 0.00 | 0.00 | 0.00 | 50 | 1009.8 |
| 20260509195004 | 87 | 75 | 6.0 | 13.0 | 0.00 | 0.00 | 0.00 | 52 | 1009.8 |
| 20260509194504 | 87 | 112 | 3.0 | 10.0 | 0.00 | 0.00 | 0.00 | 53 | 1009.9 |
| 20260509194005 | 86 | 108 | 3.0 | 9.0 | 0.00 | 0.00 | 0.00 | 53 | 1010.0 |
| 20260509193504 | 86 | 90 | 3.0 | 9.0 | 0.00 | 0.00 | 0.00 | 53 | 1010.0 |
| 20260509193005 | 87 | 6 | 3.0 | 7.0 | 0.00 | 0.00 | 0.00 | 54 | 1010.0 |
| 20260509192505 | 86 | 316 | 1.0 | 6.0 | 0.00 | 0.00 | 0.00 | 54 | 1010.0 |
| 20260509192005 | 86 | 348 | 3.0 | 7.0 | 0.00 | 0.00 | 0.00 | 52 | 1010.0 |
| 20260509191504 | 86 | 335 | 5.0 | 13.0 | 0.00 | 0.00 | 0.00 | 56 | 1010.1 |
| 20260509191004 | 86 | 7 | 3.0 | 8.0 | 0.00 | 0.00 | 0.00 | 54 | 1010.1 |
| 20260509190005 | 84 | 50 | 2.0 | 7.0 | 0.00 | 0.00 | 0.00 | 59 | 1010.3 |
| 20260509185505 | 85 | 63 | 2.0 | 5.0 | 0.00 | 0.00 | 0.00 | 59 | 1010.4 |
| 20260509185004 | 85 | 348 | 3.0 | 12.0 | 0.00 | 0.00 | 0.00 | 61 | 1010.4 |
| 20260509184504 | 84 | 335 | 3.0 | 7.0 | 0.00 | 0.00 | 0.00 | 62 | 1010.4 |
| 20260509184004 | 85 | 5 | 3.0 | 8.0 | 0.00 | 0.00 | 0.00 | 61 | 1010.5 |
| 20260509183504 | 84 | 48 | 0.0 | 7.0 | 0.00 | 0.00 | 0.00 | 63 | 1010.6 |
| 20260509182505 | 83 | 102 | 3.0 | 9.0 | 0.00 | 0.00 | 0.00 | 64 | 1010.7 |
| 20260509182004 | 83 | 130 | 2.0 | 10.0 | 0.00 | 0.00 | 0.00 | 67 | 1010.7 |
| 20260509181504 | 82 | 69 | 1.0 | 8.0 | 0.00 | 0.00 | 0.00 | 67 | 1010.8 |
| 20260509181004 | 82 | 81 | 6.0 | 9.0 | 0.00 | 0.00 | 0.00 | 66 | 1010.9 |
| 20260509180504 | 81 | 85 | 5.0 | 12.0 | 0.00 | 0.00 | 0.00 | 68 | 1011.0 |
| 20260509180004 | 82 | 40 | 0.0 | 6.0 | 0.00 | 0.00 | 0.00 | 66 | 1011.0 |
| 20260509175504 | 82 | 47 | 1.0 | 5.0 | 0.00 | 0.00 | 0.00 | 67 | 1011.1 |
| 20260509175005 | 82 | 0 | 3.0 | 9.0 | 0.00 | 0.00 | 0.00 | 67 | 1011.2 |
| 20260509174504 | 82 | 347 | 3.0 | 9.0 | 0.00 | 0.00 | 0.00 | 68 | 1011.3 |
| 20260509173504 | 81 | 123 | 4.0 | 12.0 | 0.00 | 0.00 | 0.00 | 68 | 1011.3 |
| 20260509173004 | 81 | 19 | 3.0 | 8.0 | 0.00 | 0.00 | 0.00 | 68 | 1011.3 |
| 20260509172505 | 81 | 356 | 3.0 | 10.0 | 0.00 | 0.00 | 0.00 | 69 | 1011.4 |
| 20260509171504 | 80 | 67 | 5.0 | 12.0 | 0.00 | 0.00 | 0.00 | 70 | 1011.5 |
| 20260509171004 | 80 | 62 | 3.0 | 12.0 | 0.00 | 0.00 | 0.00 | 71 | 1011.4 |
| 20260509170004 | 79 | 312 | 2.0 | 10.0 | 0.00 | 0.00 | 0.00 | 72 | 1011.5 |
| 20260509165004 | 78 | 276 | 2.0 | 7.0 | 0.00 | 0.00 | 0.00 | 73 | 1011.4 |
| 20260509164504 | 78 | 348 | 2.0 | 8.0 | 0.00 | 0.00 | 0.00 | 73 | 1011.5 |
| 20260509163504 | 78 | 355 | 5.0 | 12.0 | 0.00 | 0.00 | 0.00 | 73 | 1011.6 |
| 20260509163004 | 78 | 19 | 6.0 | 13.0 | 0.00 | 0.00 | 0.00 | 73 | 1011.5 |
| 20260509162504 | 78 | 353 | 5.0 | 12.0 | 0.00 | 0.00 | 0.00 | 74 | 1011.4 |
| 20260509161503 | 76 | 6 | 5.0 | 14.0 | 0.00 | 0.00 | 0.00 | 76 | 1011.4 |
| 20260509161004 | 76 | 310 | 6.0 | 13.0 | 0.00 | 0.00 | 0.00 | 76 | 1011.5 |
| 20260509160504 | 77 | 27 | 3.0 | 13.0 | 0.00 | 0.00 | 0.00 | 76 | 1011.5 |
| 20260509160004 | 76 | 21 | 3.0 | 7.0 | 0.00 | 0.00 | 0.00 | 76 | 1011.5 |
| 20260509155504 | 75 | 29 | 5.0 | 12.0 | 0.00 | 0.00 | 0.00 | 78 | 1011.5 |
| 20260509155004 | 75 | 28 | 5.0 | 14.0 | 0.00 | 0.00 | 0.00 | 78 | 1011.5 |
| 20260509153504 | 74 | 348 | 6.0 | 13.0 | 0.00 | 0.00 | 0.00 | 81 | 1011.6 |
| 20260509153004 | 74 | 338 | 6.0 | 13.0 | 0.00 | 0.00 | 0.00 | 80 | 1011.7 |
| 20260509152004 | 74 | 343 | 4.0 | 13.0 | 0.00 | 0.00 | 0.00 | 81 | 1011.5 |
| 20260509151504 | 73 | 21 | 5.0 | 12.0 | 0.00 | 0.00 | 0.00 | 82 | 1011.7 |
| 20260509151004 | 73 | 5 | 2.0 | 9.0 | 0.00 | 0.00 | 0.00 | 81 | 1011.6 |
| 20260509150504 | 73 | 356 | 6.0 | 10.0 | 0.00 | 0.00 | 0.00 | 81 | 1011.5 |
| 20260509150004 | 73 | 349 | 5.0 | 10.0 | 0.00 | 0.00 | 0.00 | 82 | 1011.5 |
| 20260509145504 | 72 | 25 | 4.0 | 9.0 | 0.00 | 0.00 | 0.00 | 83 | 1011.6 |
| 20260509145003 | 72 | 355 | 3.0 | 6.0 | 0.00 | 0.00 | 0.00 | 83 | 1011.5 |
| 20260509144503 | 72 | 335 | 2.0 | 7.0 | 0.00 | 0.00 | 0.00 | 83 | 1011.6 |
| 20260509144004 | 72 | 305 | 4.0 | 12.0 | 0.00 | 0.00 | 0.00 | 84 | 1011.5 |
| 20260509143504 | 72 | 19 | 3.0 | 7.0 | 0.00 | 0.00 | 0.00 | 84 | 1011.4 |
| 20260509143003 | 71 | 344 | 4.0 | 10.0 | 0.00 | 0.00 | 0.00 | 84 | 1011.3 |
| 20260509142004 | 71 | 341 | 4.0 | 12.0 | 0.00 | 0.00 | 0.00 | 85 | 1011.3 |